| time (UTC) | temp C | wind direction | speed KPH | gust KPH | rain 1hr cm | rain 24hr cm | rain mn cm | humidity % | barometer mb |
| 20260506192839 | 15 | 315 | 0.0 | 1.6 | 0.00 | 1.37 | 1.37 | 99 | 1001.7 |
| 20260506192336 | 15 | 252 | 0.0 | 0.0 | 0.00 | 1.37 | 1.37 | 99 | 1001.9 |
| 20260506191833 | 15 | 62 | 0.0 | 0.0 | 0.00 | 1.37 | 1.37 | 99 | 1001.8 |
| 20260506191329 | 15 | 64 | 0.0 | 0.0 | 0.00 | 1.37 | 1.37 | 99 | 1002.0 |
| 20260506190826 | 15 | 71 | 0.0 | 0.0 | 0.00 | 1.37 | 1.37 | 99 | 1001.8 |
| 20260506190322 | 15 | 82 | 0.0 | 0.0 | 0.00 | 1.37 | 1.37 | 99 | 1002.0 |
| 20260506185820 | 15 | 68 | 0.0 | 0.0 | 0.00 | 1.37 | 1.37 | 99 | 1001.8 |
| 20260506185316 | 15 | 87 | 0.0 | 0.0 | 0.00 | 1.37 | 1.37 | 99 | 1002.0 |
| 20260506184813 | 15 | 85 | 0.0 | 0.0 | 0.00 | 1.37 | 1.37 | 99 | 1001.8 |
| 20260506184311 | 14 | 82 | 0.0 | 0.0 | 0.00 | 1.37 | 1.37 | 99 | 1002.0 |
| 20260506183808 | 14 | 79 | 0.0 | 0.0 | 0.00 | 1.37 | 1.37 | 99 | 1002.1 |
| 20260506183303 | 14 | 60 | 0.0 | 0.0 | 0.00 | 1.37 | 1.37 | 99 | 1001.8 |
| 20260506182800 | 14 | 86 | 0.0 | 0.0 | 0.13 | 1.37 | 1.37 | 99 | 1002.0 |
| 20260506182257 | 13 | 61 | 0.0 | 0.0 | 0.13 | 1.37 | 1.37 | 99 | 1002.2 |
| 20260506181755 | 13 | 64 | 0.0 | 0.0 | 0.00 | 1.35 | 1.35 | 99 | 1002.3 |
| 20260506181253 | 13 | 72 | 0.0 | 0.0 | 0.18 | 1.35 | 1.35 | 99 | 1002.1 |
| 20260506180750 | 13 | 71 | 0.0 | 0.0 | 0.30 | 1.35 | 1.35 | 99 | 1002.2 |
| 20260506180245 | 13 | 82 | 0.0 | 0.0 | 0.30 | 1.32 | 1.32 | 99 | 1002.3 |
| 20260506175742 | 13 | 83 | 0.0 | 0.0 | 0.36 | 1.30 | 1.30 | 99 | 1002.3 |
| 20260506175239 | 13 | 76 | 0.0 | 0.0 | 0.30 | 1.27 | 1.27 | 99 | 1002.3 |
| 20260506174737 | 13 | 69 | 0.0 | 0.0 | 0.30 | 1.24 | 1.24 | 99 | 1002.4 |
| 20260506174233 | 13 | 64 | 0.0 | 0.0 | 0.30 | 1.22 | 1.22 | 99 | 1002.3 |
| 20260506173732 | 12 | 71 | 0.0 | 0.0 | 0.48 | 1.22 | 1.22 | 99 | 1002.2 |
| 20260506173228 | 12 | 67 | 0.0 | 0.0 | 0.30 | 1.17 | 1.17 | 99 | 1002.5 |
| 20260506172724 | 12 | 70 | 0.0 | 0.0 | 0.30 | 1.14 | 1.14 | 99 | 1002.1 |
| 20260506172221 | 12 | 69 | 0.0 | 0.0 | 0.18 | 1.12 | 1.12 | 99 | 1002.5 |
| 20260506171719 | 12 | 61 | 0.0 | 0.0 | 0.13 | 1.09 | 1.09 | 99 | 1002.4 |
| 20260506171216 | 12 | 64 | 0.0 | 0.0 | 0.30 | 1.09 | 1.09 | 99 | 1002.5 |
| 20260506170713 | 12 | 84 | 0.0 | 0.0 | 0.18 | 1.07 | 1.07 | 99 | 1002.7 |
| 20260506170210 | 12 | 65 | 0.0 | 0.0 | 0.30 | 1.07 | 1.07 | 99 | 1002.4 |
| 20260506165709 | 12 | 71 | 0.0 | 0.0 | 0.30 | 1.04 | 1.04 | 99 | 1002.5 |
| 20260506165205 | 12 | 63 | 0.0 | 0.0 | 0.30 | 1.02 | 1.02 | 99 | 1002.7 |
| 20260506164702 | 12 | 58 | 0.0 | 0.0 | 0.48 | 1.02 | 1.02 | 99 | 1002.6 |
| 20260506164159 | 12 | 69 | 0.0 | 0.0 | 0.36 | 0.97 | 0.97 | 99 | 1002.7 |
| 20260506163655 | 12 | 69 | 0.0 | 0.0 | 0.30 | 0.94 | 0.94 | 99 | 1002.7 |
| 20260506163151 | 12 | 60 | 0.0 | 0.0 | 0.30 | 0.91 | 0.91 | 99 | 1002.8 |
| 20260506162647 | 11 | 77 | 0.0 | 0.0 | 0.30 | 0.89 | 0.89 | 99 | 1002.8 |
| 20260506162145 | 11 | 60 | 0.0 | 0.0 | 0.30 | 0.86 | 0.86 | 99 | 1002.9 |
| 20260506161642 | 11 | 57 | 0.0 | 1.6 | 0.18 | 0.84 | 0.84 | 99 | 1003.1 |
| 20260506161138 | 11 | 87 | 0.0 | 0.0 | 0.13 | 0.81 | 0.81 | 99 | 1002.8 |
| 20260506160636 | 11 | 52 | 0.0 | 0.0 | 0.13 | 0.81 | 0.81 | 99 | 1002.8 |
| 20260506160133 | 11 | 76 | 0.0 | 0.0 | 0.00 | 0.79 | 0.79 | 99 | 1002.9 |
| 20260506155632 | 11 | 89 | 0.0 | 0.0 | 0.18 | 0.79 | 0.79 | 99 | 1003.2 |
| 20260506155128 | 11 | 71 | 0.0 | 0.0 | 0.30 | 0.76 | 0.76 | 99 | 1003.3 |
| 20260506153230 | 11 | 69 | 0.0 | 0.0 | 0.18 | 0.74 | 0.74 | 99 | 1003.5 |
| 20260506152727 | 11 | 78 | 0.0 | 0.0 | 0.13 | 0.71 | 0.71 | 99 | 1003.5 |
| 20260506152224 | 11 | 68 | 0.0 | 0.0 | 0.13 | 0.71 | 0.71 | 99 | 1003.6 |
| 20260506151724 | 11 | 65 | 0.0 | 0.0 | 0.18 | 0.69 | 0.69 | 99 | 1003.6 |
| 20260506151219 | 11 | 63 | 0.0 | 0.0 | 0.36 | 0.69 | 0.69 | 99 | 1003.5 |
| 20260506150716 | 11 | 70 | 0.0 | 0.0 | 0.30 | 0.66 | 0.66 | 99 | 1003.6 |
| 20260506150213 | 11 | 67 | 0.0 | 0.0 | 0.13 | 0.64 | 0.64 | 99 | 1003.6 |
| 20260506145710 | 11 | 61 | 1.6 | 1.6 | 0.18 | 0.61 | 0.61 | 99 | 1003.6 |
| 20260506145207 | 11 | 73 | 0.0 | 0.0 | 0.30 | 0.61 | 0.61 | 99 | 1003.7 |
| 20260506144704 | 11 | 64 | 0.0 | 0.0 | 0.30 | 0.58 | 0.58 | 99 | 1003.9 |
| 20260506144201 | 11 | 67 | 0.0 | 0.0 | 0.18 | 0.56 | 0.56 | 99 | 1003.9 |
| 20260506143659 | 11 | 71 | 0.0 | 0.0 | 0.30 | 0.53 | 0.53 | 99 | 1004.1 |
| 20260506143156 | 11 | 71 | 0.0 | 0.0 | 0.43 | 0.53 | 0.53 | 99 | 1004.0 |
| 20260506142655 | 11 | 71 | 0.0 | 0.0 | 0.30 | 0.51 | 0.51 | 99 | 1004.2 |
| 20260506142152 | 11 | 61 | 0.0 | 0.0 | 0.43 | 0.48 | 0.48 | 99 | 1004.1 |
| 20260506141649 | 11 | 60 | 0.0 | 0.0 | 0.48 | 0.46 | 0.46 | 99 | 1004.2 |
| 20260506141148 | 11 | 73 | 0.0 | 0.0 | 0.30 | 0.41 | 0.41 | 99 | 1004.7 |
| 20260506140645 | 11 | 67 | 0.0 | 0.0 | 0.30 | 0.38 | 0.38 | 99 | 1004.6 |
| 20260506140142 | 11 | 73 | 0.0 | 0.0 | 0.36 | 0.36 | 0.36 | 99 | 1004.8 |
| 20260506135639 | 11 | 82 | 0.0 | 0.0 | 0.18 | 0.33 | 0.33 | 99 | 1004.6 |
| 20260506135135 | 11 | 65 | 0.0 | 0.0 | 0.18 | 0.33 | 0.33 | 99 | 1004.4 |
| 20260506134632 | 11 | 55 | 0.0 | 0.0 | 0.13 | 0.30 | 0.30 | 99 | 1004.1 |
| 20260506134127 | 11 | 70 | 0.0 | 0.0 | 0.13 | 0.30 | 0.30 | 99 | 1004.5 |
| 20260506133625 | 11 | 73 | 0.0 | 0.0 | 0.00 | 0.28 | 0.28 | 99 | 1004.2 |
| 20260506133122 | 11 | 69 | 0.0 | 0.0 | 0.18 | 0.28 | 0.28 | 99 | 1004.0 |
| 20260506132619 | 11 | 65 | 0.0 | 0.0 | 0.18 | 0.28 | 0.28 | 99 | 1004.1 |
| 20260506132116 | 11 | 64 | 0.0 | 0.0 | 0.00 | 0.25 | 0.25 | 99 | 1004.2 |
| 20260506131613 | 11 | 48 | 0.0 | 0.0 | 0.00 | 0.25 | 0.25 | 99 | 1004.0 |
| 20260506131110 | 11 | 62 | 0.0 | 0.0 | 0.00 | 0.25 | 0.25 | 99 | 1003.9 |
| 20260506130607 | 11 | 69 | 0.0 | 0.0 | 0.13 | 0.25 | 0.25 | 99 | 1004.0 |
| 20260506130104 | 11 | 64 | 0.0 | 0.0 | 0.13 | 0.25 | 0.25 | 99 | 1003.9 |
| 20260506125603 | 11 | 63 | 0.0 | 0.0 | 0.00 | 0.23 | 0.23 | 99 | 1004.1 |
| 20260506125100 | 11 | 67 | 0.0 | 0.0 | 0.18 | 0.23 | 0.23 | 99 | 1004.2 |
| 20260506124557 | 11 | 65 | 0.0 | 0.0 | 0.18 | 0.23 | 0.23 | 99 | 1004.2 |
| 20260506124055 | 11 | 64 | 0.0 | 0.0 | 0.18 | 0.23 | 0.23 | 99 | 1004.2 |
| 20260506123552 | 11 | 66 | 0.0 | 0.0 | 0.13 | 0.20 | 0.20 | 99 | 1004.4 |
| 20260506123051 | 11 | 64 | 0.0 | 0.0 | 0.13 | 0.20 | 0.20 | 99 | 1004.4 |
| 20260506122547 | 11 | 64 | 0.0 | 0.0 | 0.18 | 0.18 | 0.18 | 99 | 1004.6 |
| 20260506122045 | 11 | 64 | 0.0 | 0.0 | 0.30 | 0.18 | 0.18 | 99 | 1004.6 |
| 20260506121542 | 10 | 40 | 0.0 | 0.0 | 0.13 | 0.15 | 0.15 | 99 | 1004.6 |
| 20260506121039 | 11 | 61 | 0.0 | 0.0 | 0.18 | 0.13 | 0.13 | 99 | 1004.9 |
| 20260506120537 | 11 | 84 | 0.0 | 0.0 | 0.30 | 0.13 | 0.13 | 99 | 1005.0 |
| 20260506120034 | 11 | 70 | 0.0 | 0.0 | 0.13 | 0.10 | 0.10 | 99 | 1005.1 |
| 20260506115532 | 11 | 67 | 0.0 | 0.0 | 0.18 | 0.08 | 0.08 | 99 | 1004.9 |
| 20260506115030 | 11 | 79 | 0.0 | 0.0 | 0.18 | 0.08 | 0.08 | 99 | 1004.9 |
| 20260506114527 | 11 | 358 | 0.0 | 0.0 | 0.00 | 0.05 | 0.05 | 99 | 1004.9 |
| 20260506114025 | 11 | 78 | 0.0 | 0.0 | 0.13 | 0.05 | 0.05 | 99 | 1004.9 |
| 20260506113523 | 11 | 59 | 0.0 | 0.0 | 0.13 | 0.05 | 0.05 | 99 | 1004.5 |
| 20260506113020 | 11 | 35 | 0.0 | 0.0 | 0.00 | 0.03 | 0.03 | 99 | 1004.7 |
| 20260506112516 | 11 | 58 | 0.0 | 0.0 | 0.00 | 0.03 | 0.03 | 99 | 1004.7 |
| 20260506112014 | 11 | 58 | 0.0 | 0.0 | 0.00 | 0.03 | 0.03 | 99 | 1004.3 |
| 20260506111512 | 10 | 12 | 0.0 | 0.0 | 0.00 | 0.03 | 0.03 | 99 | 1004.5 |
| 20260506111009 | 10 | 50 | 0.0 | 0.0 | 0.18 | 0.03 | 0.03 | 98 | 1004.4 |
| 20260506110507 | 10 | 65 | 0.0 | 0.0 | 0.18 | 0.03 | 0.03 | 98 | 1004.2 |
| 20260506110003 | 10 | 247 | 4.8 | 4.8 | 0.00 | 0.00 | 0.00 | 99 | 1004.4 |
| 20260506105459 | 11 | 335 | 1.6 | 1.6 | 0.00 | 0.00 | 0.00 | 99 | 1004.6 |
| 20260506104957 | 11 | 62 | 0.0 | 0.0 | 0.00 | 0.00 | 0.00 | 99 | 1004.1 |
| 20260506104455 | 11 | 264 | 0.0 | 0.0 | 0.00 | 0.00 | 0.00 | 98 | 1004.4 |
| 20260506103953 | 10 | 46 | 0.0 | 0.0 | 0.00 | 0.00 | 0.00 | 98 | 1004.5 |
| 20260506103449 | 10 | 41 | 0.0 | 0.0 | 0.00 | 0.00 | 0.00 | 98 | 1004.5 |
| 20260506102946 | 10 | 86 | 0.0 | 0.0 | 0.00 | 0.00 | 0.00 | 97 | 1004.4 |
| 20260506102444 | 10 | 61 | 0.0 | 0.0 | 0.00 | 0.00 | 0.00 | 97 | 1004.2 |
| 20260506101941 | 10 | 62 | 0.0 | 0.0 | 0.00 | 0.00 | 0.00 | 96 | 1004.1 |
| 20260506101438 | 10 | 22 | 0.0 | 0.0 | 0.00 | 0.00 | 0.00 | 96 | 1004.3 |
| 20260506100935 | 10 | 56 | 0.0 | 0.0 | 0.00 | 0.00 | 0.00 | 96 | 1004.3 |
| 20260506100433 | 10 | 27 | 0.0 | 0.0 | 0.00 | 0.00 | 0.00 | 97 | 1004.3 |
| 20260506095931 | 10 | 37 | 0.0 | 0.0 | 0.00 | 0.00 | 0.00 | 97 | 1004.5 |
| 20260506095429 | 10 | 45 | 0.0 | 0.0 | 0.00 | 0.00 | 0.00 | 96 | 1004.3 |
| 20260506094925 | 10 | 28 | 0.0 | 0.0 | 0.00 | 0.00 | 0.00 | 96 | 1004.2 |
| 20260506094424 | 10 | 62 | 0.0 | 0.0 | 0.00 | 0.00 | 0.00 | 96 | 1004.0 |
| 20260506093921 | 10 | 66 | 0.0 | 0.0 | 0.00 | 0.00 | 0.00 | 96 | 1004.0 |
| 20260506093419 | 10 | 67 | 0.0 | 0.0 | 0.00 | 0.00 | 0.00 | 96 | 1004.0 |
| 20260506092916 | 10 | 67 | 0.0 | 0.0 | 0.00 | 0.00 | 0.00 | 96 | 1004.1 |
| 20260506092414 | 10 | 70 | 0.0 | 0.0 | 0.00 | 0.00 | 0.00 | 96 | 1004.1 |
| 20260506091911 | 10 | 85 | 0.0 | 0.0 | 0.00 | 0.00 | 0.00 | 96 | 1004.0 |
| 20260506091409 | 10 | 62 | 0.0 | 0.0 | 0.00 | 0.00 | 0.00 | 96 | 1004.2 |
| 20260506090905 | 10 | 62 | 0.0 | 0.0 | 0.00 | 0.00 | 0.00 | 96 | 1004.1 |
| 20260506090403 | 10 | 60 | 0.0 | 0.0 | 0.00 | 0.00 | 0.00 | 96 | 1004.1 |
| 20260506085900 | 10 | 57 | 0.0 | 0.0 | 0.00 | 0.00 | 0.00 | 96 | 1004.3 |
| 20260506085356 | 10 | 60 | 0.0 | 0.0 | 0.00 | 0.00 | 0.00 | 97 | 1004.4 |
| 20260506084853 | 10 | 46 | 0.0 | 1.6 | 0.00 | 0.00 | 0.00 | 97 | 1004.6 |
| 20260506084349 | 10 | 57 | 0.0 | 0.0 | 0.00 | 0.00 | 0.00 | 97 | 1004.5 |
| 20260506083846 | 10 | 60 | 0.0 | 0.0 | 0.00 | 0.00 | 0.00 | 96 | 1004.4 |
| 20260506083344 | 10 | 56 | 0.0 | 1.6 | 0.00 | 0.00 | 0.00 | 96 | 1004.5 |
| 20260506082841 | 10 | 62 | 0.0 | 0.0 | 0.00 | 0.00 | 0.00 | 97 | 1004.4 |
| 20260506082338 | 10 | 62 | 0.0 | 0.0 | 0.00 | 0.00 | 0.00 | 97 | 1004.6 |
| 20260506081833 | 10 | 62 | 0.0 | 0.0 | 0.00 | 0.00 | 0.00 | 97 | 1004.6 |
| 20260506081332 | 10 | 62 | 0.0 | 0.0 | 0.00 | 0.00 | 0.00 | 97 | 1004.7 |
| 20260506080829 | 10 | 60 | 0.0 | 0.0 | 0.00 | 0.00 | 0.00 | 97 | 1005.1 |
| 20260506080325 | 10 | 45 | 0.0 | 1.6 | 0.00 | 0.00 | 0.00 | 97 | 1004.8 |
| 20260506073310 | 10 | 62 | 0.0 | 0.0 | 0.00 | 0.00 | 0.00 | 96 | 1005.5 |
| 20260506072806 | 10 | 62 | 0.0 | 0.0 | 0.00 | 0.00 | 0.00 | 95 | 1005.5 |
| 20260506072305 | 10 | 62 | 0.0 | 0.0 | 0.00 | 0.00 | 0.00 | 95 | 1005.3 |
| 20260506071802 | 10 | 62 | 0.0 | 0.0 | 0.00 | 0.00 | 0.00 | 95 | 1005.2 |
| 20260506071300 | 10 | 62 | 0.0 | 0.0 | 0.00 | 0.00 | 0.00 | 95 | 1005.2 |
| 20260506070756 | 10 | 62 | 0.0 | 0.0 | 0.00 | 0.00 | 0.00 | 94 | 1005.2 |
| 20260506070253 | 10 | 62 | 0.0 | 0.0 | 0.00 | 0.00 | 0.00 | 94 | 1005.2 |
| 20260506062230 | 10 | 62 | 0.0 | 0.0 | 0.00 | 0.00 | 0.00 | 92 | 1005.5 |
| 20260506061726 | 10 | 63 | 0.0 | 0.0 | 0.00 | 0.00 | 0.00 | 92 | 1005.6 |
| 20260506061224 | 10 | 62 | 0.0 | 0.0 | 0.00 | 0.00 | 0.00 | 92 | 1005.7 |
| 20260506060722 | 10 | 62 | 0.0 | 0.0 | 0.00 | 0.00 | 0.00 | 92 | 1005.6 |
| 20260506060219 | 10 | 62 | 0.0 | 0.0 | 0.00 | 0.00 | 0.00 | 92 | 1005.7 |
| 20260506051151 | 11 | 56 | 0.0 | 1.6 | 0.00 | 0.00 | 0.00 | 90 | 1005.7 |
| 20260506050649 | 11 | 54 | 1.6 | 1.6 | 0.00 | 0.00 | 0.00 | 89 | 1005.7 |
| 20260506050146 | 11 | 52 | 0.0 | 1.6 | 0.00 | 0.00 | 0.00 | 87 | 1005.9 |
| 20260506044637 | 11 | 29 | 1.6 | 1.6 | 0.00 | 0.00 | 0.00 | 88 | 1006.0 |
| 20260506044134 | 11 | 53 | 0.0 | 0.0 | 0.00 | 0.00 | 0.00 | 88 | 1005.9 |
| 20260506043631 | 11 | 46 | 1.6 | 1.6 | 0.00 | 0.00 | 0.00 | 90 | 1006.1 |
| 20260506043129 | 11 | 54 | 0.0 | 1.6 | 0.00 | 0.00 | 0.00 | 89 | 1006.0 |
| 20260506042627 | 11 | 33 | 1.6 | 1.6 | 0.00 | 0.00 | 0.00 | 88 | 1006.2 |
| 20260506042125 | 12 | 53 | 0.0 | 0.0 | 0.00 | 0.00 | 0.00 | 88 | 1006.0 |
| 20260506041624 | 12 | 58 | 0.0 | 0.0 | 0.00 | 0.00 | 0.00 | 88 | 1005.7 |
| 20260506041120 | 12 | 5 | 1.6 | 3.2 | 0.00 | 0.00 | 0.00 | 88 | 1005.8 |
| 20260506040618 | 12 | 17 | 3.2 | 3.2 | 0.00 | 0.00 | 0.00 | 89 | 1006.1 |
| 20260506040114 | 12 | 56 | 1.6 | 1.6 | 0.00 | 0.15 | 0.15 | 89 | 1006.3 |
| 20260506035611 | 12 | 343 | 3.2 | 4.8 | 0.00 | 0.15 | 0.15 | 88 | 1006.2 |
| 20260506035108 | 12 | 339 | 3.2 | 3.2 | 0.00 | 0.15 | 0.15 | 89 | 1006.0 |
| 20260506034605 | 12 | 32 | 1.6 | 1.6 | 0.18 | 0.15 | 0.15 | 90 | 1005.8 |
| 20260506034102 | 12 | 4 | 1.6 | 1.6 | 0.30 | 0.15 | 0.15 | 90 | 1006.0 |
| 20260506033559 | 12 | 305 | 1.6 | 3.2 | 0.13 | 0.13 | 0.13 | 89 | 1006.2 |
| 20260506033056 | 13 | 54 | 1.6 | 1.6 | 0.00 | 0.10 | 0.10 | 83 | 1006.2 |
| 20260506032554 | 13 | 297 | 3.2 | 3.2 | 0.00 | 0.10 | 0.10 | 83 | 1006.2 |
| 20260506032050 | 13 | 357 | 3.2 | 3.2 | 0.00 | 0.10 | 0.10 | 83 | 1006.2 |
| 20260506031548 | 13 | 301 | 1.6 | 1.6 | 0.00 | 0.10 | 0.10 | 83 | 1006.2 |
| 20260506031044 | 13 | 340 | 1.6 | 1.6 | 0.00 | 0.10 | 0.10 | 82 | 1005.9 |
| 20260506030543 | 13 | 8 | 1.6 | 1.6 | 0.00 | 0.10 | 0.10 | 83 | 1006.0 |
| 20260506030039 | 13 | 42 | 3.2 | 3.2 | 0.00 | 0.10 | 0.10 | 83 | 1005.8 |
| 20260506025536 | 13 | 164 | 3.2 | 3.2 | 0.00 | 0.10 | 0.10 | 83 | 1005.9 |
| 20260506025032 | 13 | 310 | 6.4 | 8.0 | 0.00 | 0.10 | 0.10 | 83 | 1005.8 |
| 20260506024530 | 13 | 303 | 6.4 | 8.0 | 0.00 | 0.10 | 0.10 | 84 | 1005.9 |
| 20260506024026 | 13 | 313 | 3.2 | 4.8 | 0.00 | 0.10 | 0.10 | 85 | 1005.6 |
| 20260506023522 | 13 | 326 | 4.8 | 4.8 | 0.00 | 0.10 | 0.10 | 84 | 1005.7 |
| 20260506023020 | 14 | 321 | 8.0 | 9.7 | 0.00 | 0.10 | 0.10 | 85 | 1006.0 |
| 20260506022517 | 15 | 335 | 3.2 | 3.2 | 0.00 | 0.10 | 0.10 | 89 | 1005.8 |
| 20260506022014 | 15 | 359 | 3.2 | 3.2 | 0.00 | 0.10 | 0.10 | 90 | 1005.9 |
| 20260506021512 | 15 | 329 | 3.2 | 3.2 | 0.00 | 0.10 | 0.10 | 90 | 1006.0 |
| 20260506021009 | 15 | 312 | 6.4 | 8.0 | 0.00 | 0.10 | 0.10 | 89 | 1005.8 |
| 20260506020507 | 16 | 319 | 8.0 | 11.3 | 0.00 | 0.10 | 0.10 | 85 | 1005.6 |
| 20260506020004 | 16 | 5 | 4.8 | 8.0 | 0.00 | 0.10 | 0.10 | 85 | 1005.5 |
| 20260506015501 | 16 | 9 | 1.6 | 1.6 | 0.00 | 0.10 | 0.10 | 84 | 1005.6 |
| 20260506014958 | 16 | 47 | 0.0 | 1.6 | 0.00 | 0.10 | 0.10 | 84 | 1005.3 |
| 20260506014455 | 16 | 358 | 3.2 | 3.2 | 0.00 | 0.10 | 0.10 | 84 | 1005.3 |
| 20260506013951 | 16 | 70 | 0.0 | 0.0 | 0.00 | 0.10 | 0.10 | 84 | 1005.1 |
| 20260506013449 | 16 | 47 | 0.0 | 0.0 | 0.00 | 0.10 | 0.10 | 83 | 1005.2 |
| 20260506012945 | 16 | 319 | 3.2 | 3.2 | 0.00 | 0.10 | 0.10 | 83 | 1005.0 |
| 20260506012442 | 16 | 354 | 3.2 | 3.2 | 0.00 | 0.10 | 0.10 | 85 | 1004.7 |
| 20260506011939 | 16 | 10 | 1.6 | 1.6 | 0.00 | 0.10 | 0.10 | 87 | 1004.7 |
| 20260506011436 | 16 | 28 | 1.6 | 1.6 | 0.00 | 0.10 | 0.10 | 86 | 1004.7 |
| 20260506010933 | 15 | 22 | 1.6 | 1.6 | 0.00 | 0.10 | 0.10 | 86 | 1004.6 |
| 20260506010432 | 16 | 56 | 0.0 | 0.0 | 0.00 | 0.10 | 0.10 | 86 | 1004.5 |
| 20260506005927 | 16 | 48 | 1.6 | 1.6 | 0.00 | 0.10 | 0.10 | 85 | 1004.4 |
| 20260506005426 | 16 | 48 | 1.6 | 1.6 | 0.00 | 0.10 | 0.10 | 85 | 1004.2 |
| 20260506004920 | 16 | 51 | 0.0 | 1.6 | 0.00 | 0.10 | 0.10 | 84 | 1004.7 |
| 20260506004419 | 16 | 9 | 1.6 | 3.2 | 0.00 | 0.10 | 0.10 | 85 | 1004.3 |
| 20260506003914 | 16 | 46 | 0.0 | 0.0 | 0.00 | 0.10 | 0.10 | 86 | 1004.3 |
| 20260506003411 | 16 | 52 | 0.0 | 1.6 | 0.00 | 0.10 | 0.10 | 85 | 1004.3 |
| 20260506002908 | 16 | 34 | 1.6 | 1.6 | 0.00 | 0.10 | 0.10 | 86 | 1004.3 |
| 20260506002404 | 16 | 39 | 1.6 | 1.6 | 0.00 | 0.10 | 0.10 | 86 | 1004.3 |
| 20260506001859 | 16 | 13 | 1.6 | 1.6 | 0.00 | 0.10 | 0.10 | 86 | 1004.4 |
| 20260506001356 | 16 | 330 | 3.2 | 3.2 | 0.00 | 0.10 | 0.10 | 85 | 1004.4 |
| 20260506000853 | 16 | 23 | 1.6 | 1.6 | 0.00 | 0.10 | 0.10 | 84 | 1004.4 |
| 20260506000353 | 16 | 21 | 1.6 | 1.6 | 0.00 | 0.10 | 0.10 | 84 | 1003.9 |
| 20260505235848 | 16 | 348 | 3.2 | 3.2 | 0.00 | 0.10 | 0.10 | 83 | 1004.1 |
| 20260505235345 | 16 | 1 | 1.6 | 3.2 | 0.00 | 0.10 | 0.10 | 82 | 1003.9 |
| 20260505234842 | 16 | 47 | 1.6 | 1.6 | 0.00 | 0.10 | 0.10 | 83 | 1003.6 |
| 20260505234340 | 16 | 47 | 0.0 | 0.0 | 0.00 | 0.10 | 0.10 | 82 | 1003.7 |
| 20260505233836 | 16 | 1 | 1.6 | 3.2 | 0.00 | 0.10 | 0.10 | 82 | 1003.6 |
| 20260505233334 | 16 | 29 | 1.6 | 1.6 | 0.00 | 0.10 | 0.10 | 82 | 1003.9 |
| 20260505232832 | 16 | 356 | 1.6 | 3.2 | 0.00 | 0.10 | 0.10 | 82 | 1003.6 |
| 20260505232330 | 16 | 5 | 1.6 | 3.2 | 0.00 | 0.10 | 0.10 | 81 | 1003.4 |
| 20260505231825 | 16 | 39 | 1.6 | 1.6 | 0.00 | 0.10 | 0.10 | 81 | 1003.6 |
| 20260505231324 | 16 | 309 | 3.2 | 3.2 | 0.00 | 0.10 | 0.10 | 82 | 1003.5 |
| 20260505230822 | 16 | 332 | 3.2 | 3.2 | 0.00 | 0.10 | 0.10 | 82 | 1003.7 |
| 20260505230318 | 16 | 331 | 3.2 | 3.2 | 0.00 | 0.10 | 0.10 | 82 | 1003.3 |
| 20260505225815 | 16 | 355 | 3.2 | 3.2 | 0.00 | 0.10 | 0.10 | 82 | 1003.3 |
| 20260505225312 | 16 | 328 | 3.2 | 3.2 | 0.00 | 0.10 | 0.10 | 83 | 1003.4 |
| 20260505224807 | 16 | 17 | 3.2 | 3.2 | 0.00 | 0.10 | 0.10 | 85 | 1003.2 |
| 20260505224306 | 16 | 57 | 1.6 | 1.6 | 0.00 | 0.10 | 0.10 | 87 | 1003.3 |
| 20260505223802 | 16 | 9 | 1.6 | 3.2 | 0.00 | 0.10 | 0.10 | 90 | 1003.1 |
| 20260505223259 | 16 | 33 | 1.6 | 1.6 | 0.00 | 0.10 | 0.10 | 90 | 1003.1 |
| 20260505222755 | 16 | 334 | 4.8 | 4.8 | 0.00 | 0.10 | 0.10 | 90 | 1003.3 |
| 20260505222251 | 16 | 359 | 1.6 | 1.6 | 0.00 | 0.10 | 0.10 | 90 | 1003.7 |
| 20260505221748 | 16 | 25 | 1.6 | 1.6 | 0.00 | 0.10 | 0.10 | 89 | 1003.6 |
| 20260505221245 | 16 | 63 | 3.2 | 3.2 | 0.00 | 0.10 | 0.10 | 88 | 1003.7 |
| 20260505220742 | 16 | 78 | 3.2 | 3.2 | 0.00 | 0.10 | 0.10 | 87 | 1004.0 |
| 20260505220239 | 16 | 41 | 1.6 | 1.6 | 0.00 | 0.10 | 0.10 | 86 | 1003.7 |
| 20260505215738 | 16 | 352 | 3.2 | 3.2 | 0.00 | 0.10 | 0.10 | 85 | 1003.7 |
| 20260505215235 | 16 | 293 | 4.8 | 4.8 | 0.18 | 0.10 | 0.10 | 86 | 1003.8 |
| 20260505214733 | 16 | 298 | 6.4 | 8.0 | 0.18 | 0.10 | 0.10 | 87 | 1003.8 |
| 20260505214230 | 16 | 331 | 8.0 | 8.0 | 0.00 | 0.08 | 0.08 | 87 | 1003.8 |
| 20260505213727 | 16 | 290 | 4.8 | 8.0 | 0.00 | 0.08 | 0.08 | 88 | 1003.8 |
| 20260505213224 | 16 | 306 | 4.8 | 8.0 | 0.00 | 0.08 | 0.08 | 90 | 1003.8 |
| 20260505212720 | 16 | 333 | 4.8 | 4.8 | 0.00 | 0.08 | 0.08 | 89 | 1003.7 |
| 20260505212218 | 16 | 318 | 6.4 | 8.0 | 0.00 | 0.08 | 0.08 | 85 | 1004.1 |
| 20260505211714 | 16 | 353 | 4.8 | 8.0 | 0.00 | 0.08 | 0.08 | 83 | 1003.9 |
| 20260505211212 | 16 | 295 | 8.0 | 9.7 | 0.00 | 0.08 | 0.08 | 83 | 1003.4 |
| 20260505210708 | 16 | 300 | 8.0 | 9.7 | 0.00 | 0.08 | 0.08 | 81 | 1002.9 |
| 20260505210205 | 17 | 339 | 4.8 | 8.0 | 0.00 | 0.08 | 0.08 | 79 | 1002.2 |
| 20260505205703 | 17 | 317 | 11.3 | 12.9 | 0.00 | 0.08 | 0.08 | 76 | 1002.3 |
| 20260505205201 | 18 | 356 | 8.0 | 11.3 | 0.00 | 0.08 | 0.08 | 71 | 1001.8 |
| 20260505204657 | 21 | 356 | 12.9 | 16.1 | 0.00 | 0.08 | 0.08 | 63 | 1002.0 |
| 20260505204155 | 23 | 344 | 4.8 | 4.8 | 0.00 | 0.08 | 0.08 | 46 | 1001.8 |
| 20260505203652 | 23 | 332 | 4.8 | 4.8 | 0.00 | 0.08 | 0.08 | 45 | 1001.4 |
| 20260505203148 | 24 | 321 | 4.8 | 4.8 | 0.00 | 0.08 | 0.08 | 44 | 1001.1 |
| 20260505202644 | 24 | 355 | 6.4 | 8.0 | 0.00 | 0.08 | 0.08 | 44 | 1001.0 |
| 20260505202140 | 25 | 320 | 4.8 | 4.8 | 0.00 | 0.08 | 0.08 | 44 | 1001.0 |
| 20260505201637 | 25 | 337 | 4.8 | 4.8 | 0.00 | 0.08 | 0.08 | 45 | 1001.0 |
| 20260505201135 | 24 | 249 | 0.0 | 1.6 | 0.00 | 0.08 | 0.08 | 46 | 1000.9 |
| 20260505200633 | 23 | 318 | 3.2 | 4.8 | 0.00 | 0.08 | 0.08 | 46 | 1000.8 |
| 20260505200129 | 23 | 45 | 3.2 | 3.2 | 0.00 | 0.08 | 0.08 | 46 | 1000.8 |
| 20260505195625 | 23 | 99 | 0.0 | 1.6 | 0.00 | 0.08 | 0.08 | 47 | 1000.9 |
| 20260505195123 | 23 | 351 | 4.8 | 8.0 | 0.00 | 0.08 | 0.08 | 46 | 1001.2 |
| 20260505194620 | 23 | 54 | 4.8 | 4.8 | 0.00 | 0.08 | 0.08 | 46 | 1001.0 |
| 20260505194116 | 23 | 357 | 4.8 | 4.8 | 0.00 | 0.08 | 0.08 | 45 | 1000.9 |
| 20260505193613 | 23 | 309 | 4.8 | 4.8 | 0.00 | 0.08 | 0.08 | 44 | 1001.2 |